Location: Drocourt
(49.0571°N, 1.7669°E)
Time: 05:46:59
(UTC+00:00)

SR - Pass Details

Date: 23 April 2024
Orbit: 579 x 859 km, 66.7° (Epoch: 26 May)

Event Time Altitude Azimuth Distance (km) Brightness Sun altitude
Exits shadow 03:59:49 - 283° (WNW) 3,231 ? -7.6°
Reaches altitude 10° 04:03:37 10° 310° (NW) 2,242 ? -7.1°
Maximum altitude 04:06:02 13° 339° (NNW) 1,982 ? -6.7°
Drops below altitude 10° 04:08:23 10° 7° (N) 2,154 ? -6.4°
Sets 04:11:55 0° 35° (NE) 3,004 ? -5.9°
